Wind_Speed
28 29 29 28 28 29 31 31 32 32 32 33 34 35 35 35 36 36 36 38 39 39 40 40 41 41 42 42 43 44 45 46 47 48 48 48 49 49 50 51 53 53 53 54
28 29 29 30 29 30 30 31 32 32 33 33 33 34 34 35 36 37 37 37 37 38 40 40 40 41 41 42 42 43 44 45 46 47 48 48 49 49 50 50 51 52 51 52
28 27 29 29 28 29 30 30 31 31 31 32 33 34 34 34 35 35 36 37 37 37 38 39 40 41 42 42 42 42 43 44 45 45 46 47 48 48 48 49 49 50 51 51
28 28 29 28 27 28 29 30 30 30 30 31 32 33 34 35 35 35 35 35 36 37 37 37 38 39 40 41 42 42 42 43 43 44 45 46 46 46 47 48 48 49 49 49
26 26 26 25 25 26 27 28 29 30 31 31 31 32 33 34 34 35 35 35 36 36 37 37 37 37 38 39 40 41 41 41 41 42 43 44 44 45 45 46 46 47 47 48
24 25 26 25 25 26 27 26 27 28 29 30 30 32 32 33 34 35 35 35 35 36 36 37 37 37 37 38 39 40 41 41 41 41 42 43 43 43 44 44 45 45 45 46
24 25 25 26 26 27 27 27 27 27 28 29 30 32 33 33 34 34 35 35 35 36 36 36 37 36 37 37 37 38 39 40 41 40 41 41 42 43 44 44 45 45 45 45
25 27 26 26 26 27 27 27 27 27 27 28 29 30 31 32 33 33 33 33 34 35 35 35 35 35 36 36 36 36 37 37 39 39 39 40 40 41 42 43 44 44 44 44
25 26 27 27 26 26 27 27 27 27 27 27 28 29 30 31 31 32 32 32 33 33 34 34 35 35 35 35 35 35 35 36 36 37 38 38 39 39 40 41 42 43 42 42
26 26 26 27 27 27 27 26 27 27 27 27 28 28 28 29 29 30 31 32 32 32 33 33 33 34 34 34 34 34 35 35 35 36 36 37 38 38 39 39 39 41 41 41
26 26 26 26 25 25 25 25 26 26 27 27 28 27 28 28 29 29 30 30 30 31 31 31 31 32 32 33 33 34 34 34 35 35 36 36 36 37 37 38 38 39 40 40
26 26 26 25 25 24 24 24 25 25 26 26 26 26 27 27 28 28 29 29 29 29 29 30 30 30 30 31 31 32 33 33 34 34 34 34 34 35 36 37 38 39 39 39
26 26 26 25 24 24 23 23 24 24 25 26 26 27 27 27 28 28 28 28 29 29 29 29 29 30 30 30 30 30 31 31 31 32 32 33 34 35 35 36 37 38 38 38
26 26 25 24 23 23 24 23 23 24 25 25 26 27 27 28 28 28 28 29 29 29 29 29 29 29 29 30 30 30 31 31 31 32 32 33 34 34 35 36 36 37 38 38
26 25 24 24 23 23 23 24 24 24 25 25 26 26 27 27 28 28 29 29 28 28 29 29 29 29 29 29 30 30 31 31 31 32 32 33 34 34 34 35 35 36 36 36
24 24 24 24 23 23 23 24 24 24 25 25 26 26 27 27 28 28 29 29 28 28 28 28 28 28 29 29 29 29 29 30 31 31 32 32 33 33 33 34 34 34 34 33
24 24 24 24 24 24 24 25 25 25 26 26 26 26 27 27 28 28 28 28 28 28 27 27 27 28 28 28 28 28 29 29 30 30 30 30 31 31 31 31 31 32 32 32
25 25 25 25 25 25 26 26 26 26 26 27 26 27 27 27 28 28 27 27 27 26 27 27 27 27 27 27 27 27 28 28 28 29 30 30 30 30 30 30 30 31 31 31
25 25 25 25 26 26 26 27 27 27 28 27 27 27 27 27 27 27 26 26 26 26 26 26 26 26 26 26 26 27 27 27 28 28 29 30 30 30 30 29 29 30 30 30
25 24 24 25 25 26 26 27 28 28 28 28 28 28 27 27 27 27 27 27 27 26 26 25 26 26 25 25 25 26 26 26 27 27 28 28 28 28 28 28 28 28 28 29
25 25 25 25 26 26 27 27 28 28 28 28 28 28 28 28 27 27 27 27 27 27 26 26 26 26 25 25 25 26 26 26 26 26 26 25 25 26 26 26 27 27 27 27
25 25 25 26 26 27 28 28 28 28 28 28 28 28 28 28 28 28 28 28 27 27 26 26 26 26 25 25 25 25 25 25 25 25 24 24 24 24 24 24 25 25 25 26
26 26 26 27 27 28 29 29 29 29 28 28 29 28 28 28 28 28 29 28 28 27 27 26 26 26 25 24 24 24 24 23 24 24 24 23 23 23 23 23 23 23 24 25
26 27 28 28 29 29 30 30 30 29 29 29 30 29 29 29 29 29 29 28 27 27 26 26 26 25 25 24 24 24 23 23 23 23 22 22 22 22 22 22 23 23 23 23
28 28 28 29 29 30 30 30 30 30 30 30 30 30 30 30 30 29 29 28 27 27 26 26 26 25 25 25 25 24 24 23 23 23 22 22 22 22 22 22 22 22 22 22
28 28 28 28 29 29 29 29 30 29 29 29 29 29 29 29 29 28 28 28 27 27 26 26 26 26 26 25 25 25 24 24 24 23 23 22 22 22 22 22 22 21 21 21
28 28 28 28 29 29 29 29 29 29 29 28 28 28 28 28 28 27 27 27 27 27 27 27 27 26 26 25 25 25 24 24 24 23 23 22 22 22 22 22 21 21 20 20
Wind_Direction
279 277 276 276 275 272 271 271 270 271 270 270 270 270 272 272 273 272 272 271 270 268 266 265 264 263 264 265 265 264 264 264 263 262 261 261 261 261 260 260 259 260 261 261
281 279 277 276 275 273 272 271 271 271 270 270 270 271 273 274 273 273 272 272 271 269 268 267 266 265 265 266 266 265 265 264 264 263 261 261 262 261 261 261 261 260 261 262
285 282 280 279 278 276 273 273 272 271 271 271 272 273 274 275 275 274 274 274 272 271 270 269 268 267 266 266 266 266 266 264 264 263 262 262 262 262 261 261 261 261 262 263
287 285 282 283 282 281 278 274 273 272 271 272 274 275 276 276 276 276 277 276 274 272 272 271 270 269 267 266 266 266 266 265 265 264 264 263 263 262 261 260 260 261 261 262
289 286 285 286 286 285 283 279 276 274 274 274 275 275 276 277 278 278 278 276 274 273 273 272 271 271 270 268 267 267 267 266 265 265 265 264 264 263 262 262 261 262 263 261
288 287 287 288 288 287 285 285 283 280 278 277 277 278 278 278 278 278 278 277 276 274 274 273 273 272 272 270 269 268 267 267 266 266 266 265 264 263 263 263 262 263 263 262
288 288 288 289 289 288 286 288 286 284 281 280 280 280 280 280 280 279 279 278 276 275 275 274 273 273 273 273 271 270 268 267 267 268 267 266 264 264 263 263 263 263 263 263
290 288 289 289 287 287 288 287 287 287 285 284 283 283 283 283 282 281 281 280 279 277 276 275 274 274 274 274 273 271 270 269 268 268 268 267 266 265 264 264 264 264 264 264
292 290 287 285 285 285 287 287 288 288 288 286 286 286 285 285 284 283 282 282 281 280 278 276 276 275 274 274 274 273 271 270 269 269 269 268 268 267 266 266 265 265 265 265
291 291 289 287 286 285 286 286 287 288 289 288 288 289 289 288 287 285 284 284 283 282 280 279 277 277 276 275 275 274 273 272 271 271 270 269 268 268 268 268 266 265 265 266
289 291 292 290 288 287 286 287 288 288 288 288 289 291 291 290 289 288 288 287 286 284 284 283 282 280 279 278 277 275 274 274 273 272 271 270 269 269 269 268 268 267 267 268
290 290 290 291 289 287 285 286 287 288 288 289 291 293 293 292 292 290 289 289 288 287 286 286 284 282 281 280 279 277 275 274 273 272 271 271 270 269 269 269 269 269 269 270
290 289 289 290 288 287 286 287 289 290 290 290 291 292 293 294 294 292 290 290 289 289 287 287 286 285 283 281 279 278 277 275 273 272 272 271 270 270 270 270 270 270 271 271
290 289 288 288 288 288 288 288 289 291 292 292 292 293 293 293 293 293 292 291 290 289 288 286 286 285 283 281 280 278 278 277 275 274 273 273 273 273 272 272 272 272 272 273
290 289 288 288 288 289 289 289 289 291 293 293 294 294 294 294 294 294 294 293 292 290 289 287 285 284 282 281 280 279 279 277 276 275 275 276 275 274 273 273 272 272 272 273
289 288 287 287 288 289 290 289 290 291 292 293 294 295 295 295 296 296 295 294 293 292 291 289 287 285 283 282 280 280 279 278 277 276 276 277 277 276 276 274 273 273 273 273
289 288 287 287 287 288 288 289 290 291 293 293 293 294 295 296 297 297 296 296 295 294 292 291 290 288 285 283 281 280 280 280 279 279 278 278 278 278 277 275 274 274 274 273
290 289 288 288 287 288 288 289 290 291 292 292 293 293 294 295 296 296 296 297 296 296 294 293 291 290 288 284 282 282 282 282 281 280 280 279 280 280 279 277 276 276 275 274
293 291 289 289 289 289 289 289 291 291 291 291 292 293 294 295 295 295 296 296 297 296 295 294 294 293 290 287 285 285 285 285 284 283 282 281 280 279 278 277 277 276 275 275
294 292 290 289 289 290 290 291 292 292 291 290 291 292 293 293 294 295 295 295 295 295 294 293 294 294 292 289 287 287 288 288 288 287 285 284 282 279 278 277 276 276 275 275
293 291 290 289 289 290 291 292 293 293 292 291 291 292 292 292 293 294 294 294 294 293 293 293 294 294 293 292 290 289 289 290 290 289 288 286 284 282 280 278 277 276 275 274
291 290 289 289 289 290 291 293 294 293 292 292 292 292 292 292 292 292 293 293 292 292 291 291 294 294 293 293 293 293 291 290 290 290 289 288 287 285 283 281 279 277 276 276
292 290 289 289 290 291 292 293 294 293 292 292 292 292 292 291 291 292 292 292 291 290 290 291 292 293 292 293 294 293 293 293 292 291 290 289 288 286 284 283 281 280 279 278
294 293 292 291 291 292 293 294 294 293 292 292 292 291 291 291 291 292 292 292 291 290 290 290 290 290 291 292 293 293 293 293 292 292 291 290 289 287 286 286 284 282 281 280
296 295 295 295 294 294 294 295 295 293 292 292 292 291 291 291 291 291 291 291 290 290 289 289 290 289 290 290 292 292 292 292 291 291 291 290 289 288 288 288 287 285 283 282
299 298 298 298 298 297 296 296 296 295 293 293 293 293 292 292 291 290 290 290 289 289 288 289 289 289 289 290 290 290 290 290 289 289 289 288 287 288 288 289 288 286 284 283
299 299 299 299 299 299 298 297 297 296 295 294 294 294 293 292 291 290 290 289 289 288 288 289 289 289 288 289 289 288 288 288 287 287 287 286 287 288 288 287 286 285 284 283
Height
5560 5558 5557 5556 5556 5555 5554 5553 5552 5553 5553 5553 5550 5549 5548 5548 5547 5546 5546 5546 5545 5545 5544 5544 5544 5544 5544 5543 5543 5543 5542 5542 5542 5542 5543 5543 5543 5544 5544 5545 5545 5546 5546 5547
5551 5550 5548 5547 5547 5546 5545 5544 5543 5543 5543 5542 5540 5539 5538 5537 5536 5536 5535 5535 5534 5533 5533 5532 5532 5532 5532 5531 5531 5530 5530 5530 5529 5529 5530 5530 5530 5531 5531 5531 5532 5532 5533 5533
5543 5542 5539 5539 5540 5538 5536 5536 5535 5534 5535 5532 5531 5530 5528 5527 5526 5525 5524 5523 5522 5521 5521 5520 5519 5519 5519 5518 5518 5517 5517 5517 5517 5517 5517 5517 5517 5517 5517 5518 5518 5519 5519 5519
5534 5533 5531 5534 5530 5529 5527 5527 5525 5524 5524 5522 5521 5520 5518 5517 5515 5514 5513 5512 5511 5510 5509 5508 5508 5507 5506 5505 5505 5505 5504 5504 5504 5504 5504 5504 5504 5504 5504 5504 5504 5505 5505 5505
5526 5524 5523 5524 5522 5520 5518 5518 5517 5515 5514 5513 5511 5510 5509 5507 5505 5503 5502 5501 5499 5498 5498 5497 5496 5495 5494 5493 5493 5492 5492 5492 5492 5492 5491 5491 5491 5491 5491 5491 5491 5491 5491 5491
5518 5516 5515 5517 5514 5511 5510 5509 5508 5506 5505 5503 5502 5501 5500 5497 5495 5493 5492 5490 5488 5487 5486 5485 5484 5483 5482 5481 5481 5480 5480 5480 5479 5479 5479 5478 5478 5478 5478 5478 5478 5478 5478 5478
5511 5508 5507 5507 5505 5503 5503 5502 5499 5497 5495 5494 5492 5491 5489 5487 5485 5483 5481 5479 5478 5476 5475 5474 5473 5472 5471 5470 5469 5468 5468 5467 5467 5466 5466 5466 5466 5465 5465 5465 5465 5465 5465 5465
5503 5501 5502 5498 5496 5495 5494 5491 5489 5488 5486 5484 5482 5480 5479 5476 5474 5472 5471 5469 5467 5465 5464 5463 5461 5460 5459 5458 5457 5456 5456 5455 5455 5454 5453 5453 5453 5452 5452 5452 5452 5452 5452 5452
5497 5496 5492 5490 5488 5486 5485 5483 5481 5479 5477 5475 5473 5471 5469 5467 5465 5463 5461 5459 5457 5455 5453 5452 5450 5449 5448 5447 5446 5445 5444 5443 5443 5442 5441 5441 5440 5440 5439 5439 5439 5439 5439 5439
5488 5486 5483 5481 5479 5478 5476 5474 5472 5470 5469 5467 5465 5462 5460 5458 5456 5453 5451 5449 5447 5445 5443 5442 5440 5438 5437 5435 5434 5433 5433 5432 5431 5430 5429 5429 5428 5428 5427 5427 5427 5427 5427 5427
5480 5478 5475 5473 5471 5469 5467 5465 5464 5462 5460 5458 5456 5454 5451 5449 5447 5444 5442 5440 5437 5435 5434 5432 5430 5428 5426 5424 5423 5422 5421 5420 5420 5419 5418 5417 5416 5416 5416 5415 5415 5415 5415 5414
5472 5470 5468 5466 5463 5461 5459 5457 5455 5454 5452 5450 5447 5445 5443 5440 5438 5435 5433 5431 5428 5426 5424 5422 5420 5418 5416 5414 5413 5411 5410 5409 5408 5407 5406 5405 5405 5405 5404 5404 5403 5403 5402 5402
5464 5462 5460 5457 5455 5453 5451 5449 5447 5445 5443 5441 5439 5437 5434 5432 5429 5427 5424 5422 5419 5417 5415 5413 5411 5409 5407 5405 5403 5401 5400 5398 5397 5396 5395 5394 5394 5393 5393 5392 5391 5391 5390 5389
5456 5453 5451 5449 5447 5445 5443 5441 5439 5437 5435 5433 5431 5428 5426 5423 5421 5418 5416 5413 5410 5408 5406 5404 5401 5399 5397 5395 5393 5391 5390 5388 5387 5386 5385 5384 5383 5382 5381 5381 5380 5379 5378 5377
5448 5445 5444 5441 5440 5437 5435 5433 5432 5429 5427 5425 5422 5420 5417 5415 5412 5409 5407 5404 5401 5399 5396 5394 5392 5389 5387 5385 5383 5382 5380 5378 5377 5376 5374 5373 5372 5371 5370 5369 5368 5367 5366 5365
5440 5437 5435 5434 5432 5430 5428 5426 5424 5422 5419 5417 5414 5412 5409 5407 5404 5401 5398 5395 5393 5390 5387 5385 5382 5380 5378 5375 5373 5372 5370 5368 5367 5365 5364 5362 5361 5360 5359 5358 5356 5355 5354 5353
5432 5430 5428 5426 5424 5422 5420 5418 5416 5414 5411 5409 5406 5404 5401 5398 5395 5392 5389 5387 5384 5381 5378 5376 5373 5371 5368 5366 5364 5362 5360 5358 5357 5355 5353 5352 5351 5349 5348 5346 5345 5344 5343 5342
5424 5422 5420 5418 5416 5414 5412 5410 5408 5405 5403 5401 5398 5395 5393 5390 5387 5384 5381 5378 5375 5373 5370 5367 5364 5362 5359 5356 5354 5352 5351 5349 5347 5345 5344 5342 5340 5339 5337 5336 5335 5334 5333 5332
5415 5413 5411 5409 5407 5405 5403 5401 5399 5397 5394 5392 5389 5387 5384 5381 5378 5376 5373 5370 5367 5364 5362 5359 5356 5353 5350 5348 5346 5344 5341 5339 5337 5336 5334 5332 5330 5328 5327 5326 5325 5323 5322 5321
5407 5405 5403 5401 5399 5397 5395 5393 5390 5388 5385 5383 5381 5378 5375 5373 5370 5367 5365 5362 5359 5356 5353 5351 5348 5345 5342 5340 5337 5335 5333 5331 5328 5326 5324 5322 5320 5318 5317 5316 5314 5313 5312 5311
5399 5397 5395 5393 5391 5388 5386 5384 5381 5379 5376 5374 5371 5369 5366 5364 5361 5359 5356 5353 5350 5347 5345 5342 5339 5337 5334 5331 5329 5326 5324 5322 5319 5317 5315 5312 5311 5309 5307 5306 5305 5303 5302 5301
5390 5388 5386 5384 5382 5380 5377 5375 5372 5369 5367 5364 5362 5359 5357 5355 5352 5349 5347 5344 5342 5339 5336 5334 5331 5328 5326 5323 5321 5318 5316 5313 5311 5308 5306 5304 5302 5300 5298 5297 5296 5294 5293 5292
5382 5380 5378 5375 5373 5371 5368 5365 5363 5360 5357 5355 5352 5350 5347 5345 5343 5340 5338 5335 5332 5330 5327 5325 5322 5320 5317 5315 5313 5310 5308 5305 5303 5300 5298 5296 5294 5292 5290 5289 5287 5285 5284 5283
5373 5371 5369 5366 5363 5361 5358 5356 5353 5350 5348 5345 5343 5340 5337 5335 5333 5330 5328 5325 5322 5320 5318 5316 5313 5311 5309 5307 5304 5302 5300 5297 5295 5292 5290 5288 5286 5284 5282 5280 5279 5277 5275 5274
5364 5362 5359 5356 5354 5351 5348 5346 5343 5340 5338 5335 5332 5330 5327 5325 5323 5320 5318 5315 5313 5311 5309 5307 5304 5302 5300 5298 5296 5294 5291 5289 5287 5285 5282 5280 5278 5276 5274 5272 5271 5269 5267 5266
5355 5352 5350 5347 5344 5341 5339 5336 5333 5330 5328 5325 5322 5320 5317 5314 5312 5310 5308 5306 5304 5302 5300 5298 5296 5293 5291 5289 5287 5285 5283 5281 5278 5276 5274 5272 5270 5268 5266 5264 5263 5261 5259 5258
5346 5343 5340 5338 5335 5332 5329 5326 5323 5320 5318 5315 5312 5310 5307 5305 5302 5300 5298 5296 5294 5292 5290 5288 5286 5284 5282 5280 5278 5276 5274 5272 5270 5268 5266 5264 5262 5260 5258 5257 5255 5253 5252 5250